Location: Ebenezer
(18.2167°N, 63.0667°W)
Time: 12:38:03
(UTC+00:00)

Centaur D-1AR AC-36 - Pass Details

Date: 26 January 2020
Orbit: 549 x 36354 km, 21.9° (Epoch: 28 February)

Event Time Altitude Azimuth Distance (km) Brightness Sun altitude
Rises 22:16:00 0° 283° (WNW) 6,730 8.0 -3.8°
Reaches altitude 10° 22:22:13 10° 282° (WNW) 3,800 6.7 -5.2°
Maximum altitude 22:29:06 74° 198° (SSW) 702 2.0 -6.7°
Drops below altitude 10° 22:32:18 10° 111° (ESE) 1,804 3.5 -7.4°
Enters shadow 22:33:18 - 110° (ESE) 2,326 4.0 -7.7°
